Regional Weather Roundup
Issued by NWS

Home | Current Version | Previous Version | Graphics & Text | Print | Product List | Glossary On
Versions: 1 2 3 4 5 6 7 8 9 10 11 12 13 14 15 16 17 18 19 20 21 22 23 24 25 26 27 28 29 30 31 32 33 34 35 36 37 38 39 40 41 42 43 44 45 46 47 48 49 50
000
ASUS43 KLSX 282107
RWRMO

WEATHER SUMMARY FOR MISSOURI
NATIONAL WEATHER SERVICE SPRINGFIELD MO
400 PM CDT SUN MAY 28 2017

NOTE: "FAIR" INDICATES FEW OR NO CLOUDS BELOW 12,000 FEET WITH NO
       SIGNIFICANT WEATHER AND/OR OBSTRUCTIONS TO VISIBILITY.
       CURRENT SKY AND/OR WEATHER CONDITIONS ARE NOT AVAILABLE FOR
       CHILLICOTHE AND FARMINGTON.

MOZ001>031-035>038-043-044-053-054-282200-
...NORTHERN AND WESTERN MISSOURI...

CITY           SKY/WX    TMP DP  RH WIND       PRES   REMARKS
KANSAS CTY INT MOSUNNY   78  51  38 NW9G22    29.94S
KANSAS C DTWN  MOSUNNY   81  50  33 NW13G24   29.92S
LEE`S SUMMIT   MOSUNNY   79  52  38 W15       29.94S
ST JOSEPH      SUNNY     82  45  27 W15       29.92F
CHILLICOTHE      N/A     79  50  36 NW10G18   29.90S
KIRKSVILLE     MOSUNNY   80  53  39 W20G26    29.87S

$$
MOZ066>068-077>081-088>096-101>105-282200-
...SOUTHWEST MISSOURI...

CITY           SKY/WX    TMP DP  RH WIND       PRES   REMARKS
SPRINGFIELD    MOSUNNY   78  57  48 NW12G20   29.98R
JOPLIN         MOSUNNY   80  59  48 NW14      29.99F
BRANSON        MOSUNNY   77  57  50 NW12      29.99S

$$
MOZ032>034-039>042-045>050-055>058-069>072-282200-
...CENTRAL MISSOURI...

CITY           SKY/WX    TMP DP  RH WIND       PRES   REMARKS
COLUMBIA       MOSUNNY   78  56  46 W15G21    29.91S
JEFFERSON CITY SUNNY     80  52  37 W14G22    29.90S
ROLLA          MOSUNNY   75  59  57 W13       29.91S
SEDALIA        MOSUNNY   79  58  48 W15       29.93S
WHITEMAN AFB   MOSUNNY   80  55  42 W13G18    29.91F
WARRENSBURG    MOSUNNY   79  48  34 W12G23    29.92S
OSAGE BEACH    SUNNY     77  57  50 W13G20    29.94S

$$
MOZ051-052-059>065-282200-
...EAST CENTRAL MISSOURI...

CITY           SKY/WX    TMP DP  RH WIND       PRES   REMARKS
ST LOUIS INTL  MOSUNNY   81  60  48 W12G22    29.86R
SPIRIT OF STL  PTSUNNY   78  60  53 NW13      29.86R
ST CHARLES     MOSUNNY   80  57  45 W15       29.85R

$$
MOZ072>076-082>087-097>100-106>115-282200-
...SOUTH CENTRAL AND SOUTHEAST MISSOURI...

CITY           SKY/WX    TMP DP  RH WIND       PRES   REMARKS
CAPE GIRARDEAU CLOUDY    78  66  66 SW9       29.86R
FARMINGTON     PTSUNNY   74  63  68 NW10G18   29.91S
POPLAR BLUFF   MOSUNNY   77  68  73 S9        29.87S
WEST PLAINS    SUNNY     77  59  53 NW10      29.95R

$$




USA.gov is the U.S. government's official web portal to all federal, state and local government web resources and services.